Location: Exeidioux
(45.6312°N, 1.6819°E)
Time: 14:26:55
(UTC+00:00)

SL-08 R/B - Pass Details

Date: 03 March 2021
Orbit: 949 x 1019 km, 82.9° (Epoch: 11 April)

Event Time Altitude Azimuth Distance (km) Brightness Sun altitude
Enters shadow 20:06:05 - 181° (S) 3,731 7.4 -25.5°
Exits shadow 20:11:54 33° 176° (S) 1,637 5.4 -26.5°
Maximum altitude 20:15:02 78° 95° (E) 1,045 4.4 -27.0°
Drops below altitude 10° 20:21:31 10° 11° (N) 2,817 7.0 -28.1°
Sets 20:24:04 0° 10° (N) 3,771 7.7 -28.5°
